289  
ASUS45 KCYS 232210  
RWRWY  
 
WYOMING REGIONAL WEATHER ROUNDUP  
NATIONAL WEATHER SERVICE CHEYENNE WY  
400 PM MDT TUE JUL 23 2019  
 
NOTE: "FAIR" INDICATES FEW OR NO CLOUDS BELOW 12,000 FEET  
WITH NO SIGNIFICANT WEATHER AND/OR S TO VISIBILITY
.  
 
WYZ001-232300-  
YELLOWSTONE NATIONAL PARK  
 
CITY SKY/WX TMP DP RH WIND PRES REMARKS
 
LK YELLOWSTONE N/A 76 36 23 VRB3 30.41F  
W YELLOWSTONE NOT AVBL  
 

 
WYZ002>013-054>058-071-098>099-232300-  
NORTHERN WYOMING  
 
CITY SKY/WX TMP DP RH WIND PRES REMARKS
 
JACKSON FAIR 78 49 35 SW8 30.28F  
CODY FAIR 91 50 24 N9 30.17F  
GREYBULL FAIR 97 44 16 CALM 30.05F HX 93  
WORLAND FAIR 94 45 18 W6 30.08F HX 90  
SHERIDAN FAIR 87 57 35 SW3 30.13F  
BUFFALO FAIR 77 58 51 SW10 30.21F  
GILLETTE FAIR 88 56 33 E10 30.15F  
HULETT FAIR 84 68 58 N6 30.19  
NEWCASTLE FAIR 86 50 28 SE7 30.18  
 

 
WYZ014>020-022>026-101>103-232300-  
CENTRAL WYOMING  
 
CITY SKY/WX TMP DP RH WIND PRES REMARKS
 
BIG PINEY LGT RAIN 73 45 36 NW17G31 30.34F  
PINEDALE FAIR 79 32 18 NW12 30.37  
DUBOIS CLOUDY 79 39 24 SE17 30.34  
LANDER FAIR 88 48 25 NW6 30.21F  
RIVERTON FAIR 91 44 19 VRB3 30.20F  
CASPER FAIR 92 41 17 SE6 30.20F  
DOUGLAS FAIR 92 49 22 SE13 30.20F  
 

 
WYZ021-027>030-104>119-232300-  
SOUTHERN WYOMING  
 
CITY SKY/WX TMP DP RH WIND PRES REMARKS
 
EVANSTON FAIR 80 42 25 SE16G25 30.36R  
KEMMERER FAIR 82 32 16 SW6 30.36  
ROCK SPRINGS PTSUNNY 91 30 11 SE13 30.29F  
RAWLINS FAIR 90 34 13 MISG 30.32F  
SARATOGA FAIR 86 32 14 NW9 30.36F  
LARAMIE FAIR 83 41 22 NE6 30.38F  
CHEYENNE FAIR 85 51 31 E8 30.31F  
TORRINGTON FAIR 88 56 33 W5 30.17F  
PINE BLUFFS MOCLDY 88 50 27 SE5 30.26F  
 

 
 
 
CLICK HERE TO GO TO PREVIOUS BULLETINS.

The Nexlab WY Page Main Text Page